User: anonymous   Login
Location: St Andrew
(49.4460°N, 2.5750°W)
Time: 18:38:17
(UTC+00:00)
Language:

Iridium 66 - Orbit

View from above orbital plane
View from above orbital plane
View from above satellite
View from above satellite

Ground track
Ground track

The orbit data is extracted from the following two-line orbital elements,

1 25289U 98021E   14353.57006362  .00000156  00000-0  48555-4 0  9905
2 25289 086.3963 244.3817 0002196 097.2631 003.3093 14.34223158874491
Epoch (UTC): 19 December 2014 13:40:53
Eccentricity: 0.0002196
inclination: 86.3963°
perigee height: 776 km
apogee height: 779 km
right ascension of ascending node: 244.3817°
argument of perigee: 97.2631°
revolutions per day: 14.34223158
mean anomaly at epoch: 3.3093°
orbit number at epoch: 87449

The dashed part of the orbit path shows where the satellite is in the earth's shadow,  

DLR